Location: Arcueil
(48.7999°N, 2.3326°E)
Time: 11:34:36
(UTC+00:00)

JY1SAT - Visible Passes

Search period start: 18 June 2024 00:00
Search period end: 28 June 2024 00:00
Orbit: 538 x 550 km, 97.5° (Epoch: 18 June)

Date Brightness Start Highest point End Pass type
(mag) Time Alt. Az. Time Alt. Az. Time Alt. Az.
18 Jun ? 21:34:56 10° SSW 21:38:08 24° W 21:41:22 10° NW visible
19 Jun ? 21:28:33 10° SSW 21:31:56 27° W 21:35:21 10° NW visible
20 Jun ? 21:22:12 10° SSW 21:25:43 31° W 21:29:17 10° NNW visible
21 Jun ? 21:15:51 10° SSW 21:19:30 36° W 21:23:11 10° NNW visible
22 Jun ? 21:09:31 10° S 21:13:16 42° W 21:17:03 10° NNW visible
23 Jun ? 21:03:12 10° S 21:07:01 50° W 21:10:54 10° NNW visible
24 Jun ? 20:56:54 10° S 21:00:47 58° W 21:04:42 10° NNW visible
25 Jun ? 20:50:36 10° S 20:54:31 69° WSW 20:58:29 10° NNW visible
26 Jun ? 20:44:19 10° S 20:48:15 81° WSW 20:52:14 10° NNW visible
27 Jun ? 20:38:02 10° SSE 20:41:58 87° ENE 20:45:57 10° NNW visible
